Location: Newark
(49.7697°N, 2.7094°E)
Time: 04:38:32
(UTC+00:00)

FO-29 - Visible Passes

Search period start: 02 April 2020 00:00
Search period end: 12 April 2020 00:00
Orbit: 800 x 1321 km, 98.6° (Epoch: 01 April)

Date Brightness Start Highest point End Pass type
(mag) Time Alt. Az. Time Alt. Az. Time Alt. Az.
02 Apr 10.0 00:23:54 78° ENE 00:23:54 78° ENE 00:31:28 10° NNW visible
02 Apr 11.1 02:10:22 27° WNW 02:10:22 27° WNW 02:15:53 10° NNW visible
02 Apr 12.2 21:43:16 10° ENE 21:46:00 12° NE 21:48:41 10° NNE visible
02 Apr 10.8 23:28:03 39° E 23:29:12 41° ENE 23:36:06 10° N visible
03 Apr 10.2 01:14:32 56° W 01:14:32 56° W 01:21:29 10° NNW visible
03 Apr 11.8 03:01:00 13° WNW 03:01:00 13° WNW 03:03:45 10° NW visible
03 Apr 11.7 22:32:14 18° ENE 22:34:58 22° NE 22:40:19 10° N visible
04 Apr 10.0 00:18:42 74° E 00:18:57 75° ENE 00:26:28 10° NNW visible
04 Apr 11.0 02:05:11 29° W 02:05:11 29° W 02:10:58 10° NNW visible
04 Apr 12.2 21:38:57 10° ENE 21:41:09 11° NE 21:43:18 10° NNE visible
04 Apr 10.9 23:22:52 36° E 23:24:20 39° ENE 23:31:03 10° N visible
05 Apr 10.1 01:09:21 60° W 01:09:21 60° W 01:16:30 10° NNW visible
05 Apr 11.7 02:55:49 14° WNW 02:55:49 14° WNW 02:59:04 10° NW visible
05 Apr 11.7 22:27:02 16° E 22:30:06 21° NE 22:35:12 10° N visible
06 Apr 10.1 00:13:31 69° E 00:14:03 71° ENE 00:21:27 10° N visible
06 Apr 10.9 01:59:59 31° W 01:59:59 31° W 02:06:03 10° NNW visible
06 Apr 12.2 21:34:52 10° NE 21:36:17 11° NE 21:37:42 10° NNE visible
06 Apr 11.0 23:17:41 33° E 23:19:27 37° ENE 23:26:00 10° N visible
07 Apr 10.0 01:04:10 63° W 01:04:10 63° W 01:11:30 10° NNW visible
07 Apr 11.6 02:50:38 14° W 02:50:38 14° W 02:54:19 10° NW visible
07 Apr 11.8 22:21:52 15° E 22:25:14 20° NE 22:30:03 10° N visible
08 Apr 10.1 00:08:20 64° ESE 00:09:09 68° ENE 00:16:25 10° N visible
08 Apr 10.8 01:54:49 32° W 01:54:49 32° W 02:01:06 10° NNW visible
08 Apr 11.1 23:12:31 30° E 23:14:33 35° ENE 23:20:56 10° N visible
09 Apr 10.0 00:58:59 66° WSW 00:59:12 66° WSW 01:06:30 10° NNW visible
09 Apr 11.6 02:45:28 15° W 02:45:28 15° W 02:49:31 10° NW visible
09 Apr 11.8 22:16:41 13° E 22:20:21 18° NE 22:24:54 10° N visible
10 Apr 10.2 00:03:09 58° ESE 00:04:14 64° ENE 00:11:22 10° N visible
10 Apr 10.7 01:49:38 34° W 01:49:38 34° W 01:56:08 10° NNW visible
10 Apr 11.1 23:07:21 28° E 23:09:39 33° ENE 23:15:49 10° N visible
11 Apr 9.9 00:53:49 68° SW 00:54:16 70° WSW 01:01:29 10° NNW visible
11 Apr 11.5 02:40:17 16° W 02:40:23 16° W 02:44:41 10° NW visible
11 Apr 11.9 22:11:31 11° E 22:15:28 17° NE 22:19:42 10° NNE visible
